Slayton, MN

9:08 AM CDT on March 25, 2017 (GMT -0500)
Slayton

Weather History for KDVP - May, 2013

Change the Weather History Date:

Tuesday, May 28, 2013

  Actual Average (KOTG) Record (KOTG)
Temperature  
Mean Temperature 59 °F -  
Max Temperature 66 °F 67 °F 93 °F (2006)
Min Temperature 53 °F 49 °F 43 °F (1984)
Degree Days  
Heating Degree Days 6    
Growing Degree Days 9 (Base 50)    
Moisture  
Dew Point 56 °F    
Average Humidity 93    
Maximum Humidity 100    
Minimum Humidity 75    
Precipitation  
Precipitation 0.01 in - - ()
Sea Level Pressure  
Sea Level Pressure 29.75 in    
Wind  
Wind Speed 6 mph (ENE)    
Max Wind Speed 13 mph    
Max Gust Speed -    
Visibility 5 miles    
Events Fog    
Averages and records for this station are not official NWS values.
T = Trace of Precipitation, MM = Missing Value Source: NWS Daily Summary

Daily Weather History Graph

Daily Weather History Graph

Search for Another Location

Airport or City:

Trip Planner

Search our weather history database for the weather conditions in past years. The results will help you decide how hot, cold, wet, or windy it might be!

Date:

Astronomy

May. 28, 2013 Rise Set
Actual Time 5:45 AM CDT 8:55 PM CDT
Civil Twilight 5:10 AM CDT 9:30 PM CDT
Nautical Twilight 4:25 AM CDT 10:16 PM CDT
Astronomical Twilight 3:30 AM CDT 11:11 PM CDT
Moon No Moon Rise 9:38 AM CDT (5/28)
Length of Visible Light 16h 20m
Length of Day
15h 10m
Waning Gibbous, 82% of the Moon is Illuminated
May 28
Waning Gibbous
May 31
Last Quarter
Jun 8
New
Jun 16
First Quarter
Jun 23
Full

Hourly Weather History & Observations

Time (CDT) Temp. Dew Point Humidity Pressure Visibility Wind Dir Wind Speed Gust Speed Precip Events Conditions
12:13 AM 54.5 °F 54.5 °F 100% 29.79 in 0.5 mi East 11.5 mph - N/A Fog Fog
12:33 AM 54.5 °F 54.5 °F 100% 29.77 in 0.2 mi East 12.7 mph - N/A Fog Fog
12:53 AM 54.5 °F 54.5 °F 100% 29.78 in 0.2 mi East 9.2 mph - N/A Fog Fog
1:14 AM 54.5 °F 54.5 °F 100% 29.78 in 0.2 mi East 8.1 mph - N/A Fog Fog
1:32 AM 54.3 °F 54.3 °F 100% 29.78 in 0.2 mi East 9.2 mph - N/A Fog Fog
1:53 AM 54.1 °F 54.1 °F 100% 29.76 in 0.2 mi ENE 6.9 mph - N/A Fog Fog
2:13 AM 54.1 °F 54.1 °F 100% 29.76 in 0.2 mi ENE 6.9 mph - N/A Fog Fog
2:32 AM 54.0 °F 54.0 °F 100% 29.76 in 0.2 mi East 9.2 mph - N/A Fog Fog
2:53 AM 54.0 °F 54.0 °F 100% 29.76 in 0.2 mi East 6.9 mph - N/A Fog Fog
3:14 AM 53.8 °F 53.8 °F 100% 29.76 in 0.2 mi ENE 6.9 mph - N/A Fog Fog
3:33 AM 53.8 °F 53.8 °F 100% 29.76 in 0.2 mi ENE 4.6 mph - N/A Fog Fog
3:54 AM 53.8 °F 53.8 °F 100% 29.76 in 0.2 mi Calm Calm - N/A Fog Fog
4:13 AM 53.8 °F 53.8 °F 100% 29.76 in 0.2 mi Calm Calm - N/A Fog Fog
4:33 AM 53.6 °F 53.6 °F 100% 29.75 in 0.5 mi North 4.6 mph - N/A Fog Fog
4:53 AM 53.6 °F 53.6 °F 100% 29.74 in 0.5 mi North 4.6 mph - N/A Fog Fog
5:13 AM 53.6 °F 53.6 °F 100% 29.74 in 0.5 mi North 4.6 mph - N/A Fog Fog
5:33 AM 53.6 °F 53.6 °F 100% 29.74 in 0.8 mi NNE 4.6 mph - N/A   Overcast
5:52 AM 53.6 °F 53.6 °F 100% 29.73 in 0.5 mi NE 5.8 mph - N/A Fog Fog
6:14 AM 53.6 °F 53.6 °F 100% 29.73 in 0.8 mi East 3.5 mph - N/A   Overcast
6:33 AM 53.6 °F 53.6 °F 100% 29.73 in 0.5 mi ENE 5.8 mph - N/A Fog Fog
6:53 AM 53.6 °F 53.6 °F 100% 29.72 in 0.5 mi NE 5.8 mph - N/A Fog Fog
7:14 AM 53.6 °F 53.6 °F 100% 29.71 in 0.5 mi ENE 6.9 mph - N/A Fog Fog
7:33 AM 53.6 °F 53.6 °F 100% 29.70 in 0.5 mi ENE 8.1 mph - N/A Fog Fog
7:53 AM 53.6 °F 53.6 °F 100% 29.72 in 0.8 mi East 5.8 mph - N/A   Overcast
8:12 AM 54.0 °F 54.0 °F 100% 29.71 in 0.8 mi ENE 9.2 mph - N/A   Overcast
8:33 AM 54.5 °F 54.5 °F 100% 29.71 in 0.5 mi East 9.2 mph - N/A Fog Fog
8:53 AM 55.0 °F 55.0 °F 100% 29.70 in 0.5 mi ENE 8.1 mph - N/A Fog Fog
9:14 AM 55.0 °F 55.0 °F 100% 29.72 in 0.5 mi East 6.9 mph - N/A Fog Fog
9:33 AM 55.4 °F 55.4 °F 100% 29.72 in 0.5 mi East 4.6 mph - N/A Fog Fog
9:53 AM 55.6 °F 55.6 °F 100% 29.75 in 1.5 mi SW 5.8 mph - N/A   Overcast
10:13 AM 55.8 °F 55.8 °F 100% 29.75 in 1.2 mi Calm Calm - N/A   Overcast
10:34 AM 55.8 °F 55.8 °F 100% 29.74 in 2.0 mi WNW 3.5 mph - N/A   Overcast
10:53 AM 55.9 °F 55.9 °F 100% 29.75 in 4.0 mi NW 3.5 mph - N/A   Overcast
11:13 AM 55.9 °F 55.9 °F 100% 29.75 in 4.0 mi NW 4.6 mph - N/A   Overcast
11:33 AM 56.1 °F 56.1 °F 100% 29.76 in 5.0 mi WNW 5.8 mph - N/A   Overcast
11:53 AM 56.3 °F 56.3 °F 100% 29.77 in 4.0 mi West 4.6 mph - N/A   Overcast
12:14 PM 56.3 °F 56.3 °F 100% 29.77 in 5.0 mi West 4.6 mph - N/A   Light Drizzle
12:33 PM 56.7 °F 56.3 °F 99% 29.77 in 7.0 mi West 3.5 mph - N/A   Overcast
12:53 PM 56.8 °F 56.3 °F 98% 29.77 in 5.0 mi WNW 5.8 mph - N/A   Light Drizzle
1:13 PM 57.9 °F 56.5 °F 95% 29.77 in 7.0 mi West 8.1 mph - N/A   Overcast
1:33 PM 58.6 °F 55.9 °F 91% 29.76 in 10.0 mi WNW 6.9 mph - N/A   Overcast
1:53 PM 59.5 °F 56.5 °F 90% 29.76 in 10.0 mi NW 8.1 mph - 0.01 in   Overcast
2:14 PM 59.5 °F 56.1 °F 88% 29.76 in 10.0 mi NW 4.6 mph - N/A   Overcast
2:33 PM 59.9 °F 56.7 °F 89% 29.77 in 10.0 mi WNW 6.9 mph - N/A   Overcast
2:53 PM 60.6 °F 55.9 °F 85% 29.77 in 10.0 mi WNW 8.1 mph - N/A   Overcast
3:13 PM 61.9 °F 56.8 °F 84% 29.76 in 10.0 mi NNW 5.8 mph - N/A   Overcast
3:33 PM 61.9 °F 56.1 °F 81% 29.76 in 10.0 mi North 6.9 mph - N/A   Overcast
3:53 PM 63.1 °F 57.2 °F 81% 29.75 in 10.0 mi North 8.1 mph - N/A   Overcast
4:13 PM 62.8 °F 57.0 °F 81% 29.76 in 10.0 mi NNW 4.6 mph - N/A   Mostly Cloudy
4:33 PM 63.1 °F 56.5 °F 79% 29.77 in 10.0 mi SW 3.5 mph - N/A   Overcast
4:53 PM 63.5 °F 56.7 °F 78% 29.77 in 10.0 mi Calm Calm - N/A   Overcast
5:13 PM 63.9 °F 57.4 °F 79% 29.78 in 10.0 mi Calm Calm - N/A   Overcast
5:33 PM 64.4 °F 56.7 °F 76% 29.77 in 10.0 mi Calm Calm - N/A   Overcast
5:53 PM 64.4 °F 56.8 °F 76% 29.77 in 10.0 mi SSE 3.5 mph - N/A   Mostly Cloudy
6:13 PM 65.7 °F 57.7 °F 76% 29.77 in 10.0 mi South 3.5 mph - N/A   Mostly Cloudy
6:33 PM 65.3 °F 57.7 °F 76% 29.77 in 10.0 mi SSE 3.5 mph - N/A   Mostly Cloudy
6:53 PM 65.3 °F 58.5 °F 78% 29.76 in 10.0 mi Calm Calm - N/A   Mostly Cloudy
7:14 PM 65.3 °F 57.4 °F 76% 29.75 in 10.0 mi Calm Calm - N/A   Scattered Clouds
7:33 PM 65.8 °F 57.6 °F 75% 29.74 in 10.0 mi Calm Calm - N/A   Scattered Clouds
7:52 PM 65.3 °F 57.2 °F 75% 29.73 in 10.0 mi Calm Calm - N/A   Clear
8:13 PM 65.3 °F 58.1 °F 77% 29.74 in 10.0 mi East 4.6 mph - N/A   Clear
8:33 PM 63.5 °F 59.0 °F 85% 29.74 in 10.0 mi East 6.9 mph - N/A   Clear
8:54 PM 62.1 °F 58.5 °F 88% 29.75 in 10.0 mi ESE 4.6 mph - N/A   Clear
9:13 PM 61.0 °F 58.1 °F 90% 29.75 in 10.0 mi Calm Calm - N/A   Clear
9:33 PM 60.4 °F 58.3 °F 93% 29.75 in 10.0 mi Calm Calm - N/A   Clear
9:53 PM 58.1 °F 56.8 °F 96% 29.75 in 10.0 mi East 5.8 mph - N/A   Clear
10:12 PM 58.5 °F 57.0 °F 95% 29.76 in 10.0 mi SE 4.6 mph - N/A   Clear
10:33 PM 57.4 °F 56.5 °F 97% 29.79 in 7.0 mi SE 8.1 mph - N/A   Clear
10:54 PM 56.5 °F 55.8 °F 97% 29.80 in 7.0 mi SSE 6.9 mph - N/A   Clear
11:13 PM 55.9 °F 55.4 °F 98% 29.79 in 7.0 mi SE 3.5 mph - N/A   Clear
11:33 PM 56.7 °F 56.3 °F 99% 29.80 in 7.0 mi SE 3.5 mph - N/A   Clear
11:53 PM 57.2 °F 56.7 °F 98% 29.80 in 5.0 mi SSE 6.9 mph - N/A   Clear